User: anonymous   Login
Location: Young's Pond
(41.2695°N, 72.7766°W)
Time: 11:14:52
(UTC-05:00)
Language:

Spot 4 - Orbit

View from above orbital plane
View from above orbital plane
View from above satellite
View from above satellite

Ground track
Ground track

The orbit data is extracted from the following two-line orbital elements,

1 25260U 98017A   17021.84462100 -.00000014  00000-0  77298-5 0  9990
2 25260  98.3610 104.6765 0013309   8.9249 351.2180 14.53455857980599
Epoch (UTC): 21 January 2017 20:16:15
Eccentricity: 0.0013309
inclination: 98.3610°
perigee height: 705 km
apogee height: 724 km
right ascension of ascending node: 104.6765°
argument of perigee: 8.9249°
revolutions per day: 14.53455857
mean anomaly at epoch: 351.2180°
orbit number at epoch: 98059

The dashed part of the orbit path shows where the satellite is in the earth's shadow,  

DLR